CFG13DP EDDH-EHRD

Flight info

Callsign CFG13DP
Flight time N/A
Altitude 36000
Route WSN5G WSN N125 BLUFA
Aircraft A320/M-SDE3FGHIRWY/LB1

Departure

Time 2026-05-06 15:07
Airport Hamburg Helmut Schmidt Airport (EDDH)

Arrival

Time N/A
Airport Rotterdam The Hague Airport (EHRD)
Time Latitude Longitude Altitude Speed Heading
2026-05-06 14:33 53.63331 10.00348 49 ft 0 kts 86°
2026-05-06 14:59 53.63330 10.00329 48 ft 4 kts 87°
2026-05-06 15:00 53.63329 10.00284 48 ft 4 kts 92°
2026-05-06 15:00 53.63332 10.00240 47 ft 4 kts 118°
2026-05-06 15:00 53.63344 10.00219 46 ft 0 kts 176°
2026-05-06 15:02 53.63343 10.00219 45 ft 2 kts 176°
2026-05-06 15:03 53.63303 10.00187 48 ft 7 kts 207°
2026-05-06 15:03 53.63258 10.00174 48 ft 6 kts 181°
2026-05-06 15:03 53.63216 10.00173 48 ft 6 kts 179°
2026-05-06 15:03 53.63179 10.00176 48 ft 5 kts 175°
2026-05-06 15:04 53.63110 10.00192 48 ft 12 kts 172°
2026-05-06 15:04 53.63035 10.00149 48 ft 11 kts 212°
2026-05-06 15:04 53.62975 10.00083 48 ft 10 kts 213°
2026-05-06 15:04 53.62930 10.00018 48 ft 8 kts 233°
2026-05-06 15:05 53.62905 9.99942 48 ft 7 kts 243°
2026-05-06 15:05 53.62880 9.99859 47 ft 9 kts 243°
2026-05-06 15:05 53.62864 9.99760 45 ft 9 kts 292°
2026-05-06 15:05 53.62883 9.99733 45 ft 0 kts 331°
2026-05-06 15:06 53.62916 9.99703 45 ft 28 kts 332°
2026-05-06 15:06 53.63345 9.99337 45 ft 106 kts 333°
2026-05-06 15:06 53.64176 9.98636 68 ft 161 kts 334°
2026-05-06 15:07 53.65185 9.97747 674 ft 166 kts 336°
2026-05-06 15:07 53.66204 9.96875 1492 ft 170 kts 339°
2026-05-06 15:07 53.67356 9.95915 1812 ft 199 kts 338°
2026-05-06 15:07 53.68644 9.94818 2528 ft 211 kts 338°
2026-05-06 15:08 53.69964 9.93662 3444 ft 216 kts 338°
2026-05-06 15:08 53.71166 9.92065 4266 ft 230 kts 306°
2026-05-06 15:08 53.71605 9.89382 4854 ft 256 kts 269°
2026-05-06 15:08 53.71265 9.86267 5181 ft 281 kts 252°
2026-05-06 15:09 53.70570 9.83165 6153 ft 284 kts 248°
2026-05-06 15:09 53.69817 9.80039 7089 ft 289 kts 248°
2026-05-06 15:09 53.69062 9.76892 8140 ft 290 kts 249°
2026-05-06 15:09 53.68353 9.73687 9217 ft 292 kts 250°
2026-05-06 15:10 53.67689 9.70450 9713 ft 296 kts 252°
2026-05-06 15:10 53.67046 9.67171 9827 ft 294 kts 252°
2026-05-06 15:10 53.66406 9.63900 9849 ft 296 kts 252°
2026-05-06 15:10 53.65729 9.60442 9920 ft 321 kts 252°
2026-05-06 15:11 53.64821 9.56957 9866 ft 327 kts 240°
2026-05-06 15:11 53.63498 9.53841 9905 ft 328 kts 233°
2026-05-06 15:11 53.62130 9.50742 9904 ft 329 kts 234°
2026-05-06 15:11 53.60786 9.47627 9893 ft 329 kts 234°
2026-05-06 15:12 53.59444 9.44479 10095 ft 336 kts 235°
2026-05-06 15:12 53.58085 9.41277 11052 ft 335 kts 234°
2026-05-06 15:12 53.56724 9.38083 11965 ft 338 kts 233°
2026-05-06 15:12 53.55343 9.34868 12828 ft 341 kts 233°
2026-05-06 15:13 53.53961 9.31662 13651 ft 344 kts 232°
2026-05-06 15:13 53.52547 9.28391 14391 ft 348 kts 232°
2026-05-06 15:13 53.51117 9.25089 15146 ft 350 kts 232°
2026-05-06 15:13 53.49678 9.21767 15903 ft 352 kts 232°
2026-05-06 15:14 53.48231 9.18430 16670 ft 355 kts 232°
2026-05-06 15:14 53.46770 9.15064 17427 ft 358 kts 232°
2026-05-06 15:14 53.45299 9.11680 18176 ft 361 kts 233°
2026-05-06 15:14 53.43814 9.08267 18811 ft 363 kts 233°
2026-05-06 15:15 53.42319 9.04831 19424 ft 366 kts 233°
2026-05-06 15:15 53.40808 9.01364 20047 ft 369 kts 233°
2026-05-06 15:15 53.39281 8.97873 20667 ft 373 kts 233°
2026-05-06 15:15 53.37741 8.94359 21280 ft 376 kts 233°
2026-05-06 15:16 53.36187 8.90819 21896 ft 379 kts 233°
2026-05-06 15:16 53.34757 8.87093 22521 ft 383 kts 242°
2026-05-06 15:16 53.33707 8.82973 23147 ft 387 kts 249°
2026-05-06 15:16 53.32788 8.78790 23705 ft 390 kts 249°
2026-05-06 15:17 53.31849 8.74515 24217 ft 393 kts 249°
2026-05-06 15:17 53.30899 8.70200 24717 ft 396 kts 249°
2026-05-06 15:17 53.29939 8.65864 25206 ft 399 kts 249°
2026-05-06 15:17 53.28975 8.61505 25683 ft 402 kts 249°
2026-05-06 15:18 53.28007 8.57102 26139 ft 405 kts 249°
2026-05-06 15:18 53.27035 8.52673 26607 ft 407 kts 249°
2026-05-06 15:18 53.26069 8.48213 27055 ft 410 kts 250°
2026-05-06 15:18 53.25161 8.43675 27495 ft 413 kts 251°
2026-05-06 15:19 53.24303 8.39081 27918 ft 416 kts 252°
2026-05-06 15:19 53.23469 8.34444 28327 ft 418 kts 252°
2026-05-06 15:19 53.22627 8.29770 28726 ft 421 kts 252°
2026-05-06 15:19 53.21768 8.25077 29111 ft 424 kts 252°
2026-05-06 15:20 53.20887 8.20371 29490 ft 427 kts 251°
2026-05-06 15:20 53.19984 8.15641 29857 ft 429 kts 251°
2026-05-06 15:20 53.19077 8.10944 30187 ft 431 kts 251°
2026-05-06 15:20 53.18161 8.06180 30515 ft 433 kts 251°
2026-05-06 15:21 53.17249 8.01386 30842 ft 434 kts 251°
2026-05-06 15:21 53.16342 7.96576 31154 ft 436 kts 251°
2026-05-06 15:21 53.15436 7.91749 31457 ft 437 kts 251°
2026-05-06 15:21 53.14528 7.86918 31790 ft 437 kts 251°
2026-05-06 15:22 53.13616 7.82098 32241 ft 435 kts 251°
2026-05-06 15:22 53.12704 7.77313 32689 ft 432 kts 251°
2026-05-06 15:22 53.11794 7.72561 33135 ft 430 kts 251°
2026-05-06 15:22 53.10882 7.67826 33589 ft 428 kts 251°
2026-05-06 15:23 53.09974 7.63120 34009 ft 426 kts 251°
2026-05-06 15:23 53.09066 7.58435 34361 ft 425 kts 251°
2026-05-06 15:23 53.08160 7.53761 34696 ft 424 kts 251°
2026-05-06 15:23 53.07255 7.49105 35013 ft 423 kts 251°
2026-05-06 15:24 53.06347 7.44452 35307 ft 423 kts 251°
2026-05-06 15:24 53.05439 7.39810 35606 ft 422 kts 251°
2026-05-06 15:24 53.04530 7.35178 35850 ft 423 kts 251°
2026-05-06 15:25 53.02697 7.25876 35897 ft 422 kts 251°
2026-05-06 15:25 53.00882 7.16672 35899 ft 422 kts 250°
2026-05-06 15:26 52.99009 7.07448 35897 ft 422 kts 250°
2026-05-06 15:26 52.98059 7.02834 35245 ft 426 kts 250°
2026-05-06 15:26 52.97084 6.98109 34108 ft 437 kts 250°
2026-05-06 15:26 52.96106 6.93354 33218 ft 432 kts 250°
2026-05-06 15:27 52.95145 6.88667 32048 ft 426 kts 250°
2026-05-06 15:27 52.94195 6.84049 30962 ft 421 kts 249°
2026-05-06 15:27 52.93256 6.79490 29938 ft 415 kts 249°
2026-05-06 15:27 52.92328 6.74997 28816 ft 408 kts 249°
2026-05-06 15:28 52.91411 6.70554 27874 ft 406 kts 250°
2026-05-06 15:28 52.90495 6.66136 27338 ft 400 kts 250°
2026-05-06 15:28 52.89596 6.61820 26788 ft 393 kts 250°
2026-05-06 15:28 52.88721 6.57639 25833 ft 387 kts 250°
2026-05-06 15:29 52.87845 6.53464 24900 ft 381 kts 250°
2026-05-06 15:29 52.86979 6.49351 24007 ft 375 kts 250°
2026-05-06 15:29 52.86125 6.45296 23103 ft 370 kts 250°
2026-05-06 15:29 52.85284 6.41304 22137 ft 365 kts 250°
2026-05-06 15:30 52.84454 6.37360 21193 ft 360 kts 250°
2026-05-06 15:30 52.83403 6.33650 20301 ft 355 kts 238°
2026-05-06 15:30 52.81893 6.30481 19411 ft 350 kts 226°
2026-05-06 15:30 52.80171 6.27665 18524 ft 348 kts 225°
2026-05-06 15:31 52.78459 6.24872 17703 ft 342 kts 225°
2026-05-06 15:31 52.76808 6.22175 17278 ft 326 kts 225°
2026-05-06 15:31 52.75232 6.19597 16871 ft 311 kts 226°
2026-05-06 15:32 52.72268 6.14739 15953 ft 295 kts 226°
2026-05-06 15:32 52.70785 6.12313 15087 ft 304 kts 226°
2026-05-06 15:32 52.69282 6.09857 14518 ft 311 kts 226°
2026-05-06 15:32 52.67735 6.07333 14047 ft 313 kts 227°
2026-05-06 15:33 52.66208 6.04845 13652 ft 305 kts 227°
2026-05-06 15:33 52.64695 6.02384 13221 ft 305 kts 226°
2026-05-06 15:33 52.63187 5.99935 12801 ft 305 kts 226°
2026-05-06 15:33 52.61682 5.97491 12380 ft 304 kts 226°
2026-05-06 15:34 52.60176 5.95047 11957 ft 303 kts 226°
2026-05-06 15:34 52.58673 5.92612 11577 ft 302 kts 226°
2026-05-06 15:34 52.57181 5.90193 11193 ft 300 kts 226°
2026-05-06 15:34 52.55695 5.87792 10822 ft 299 kts 225°
2026-05-06 15:35 52.54219 5.85408 10451 ft 297 kts 225°
2026-05-06 15:35 52.52751 5.83046 10088 ft 295 kts 225°
2026-05-06 15:35 52.51785 5.81494 9852 ft 294 kts 225°
2026-05-06 15:35 52.50821 5.79945 9592 ft 292 kts 225°
2026-05-06 15:36 52.48910 5.76864 9315 ft 282 kts 225°
2026-05-06 15:36 52.48439 5.76106 9262 ft 280 kts 225°